TimeCET,TemperatureF,Dew PointF,Humidity,Sea Level PressureIn,VisibilityMPH,Wind Direction,Wind SpeedMPH,Gust SpeedMPH,PrecipitationIn,Events,Conditions,WindDirDegrees,DateUTC
12:50 AM,64.4,57.2,77,30.21,6.2,NNW,4.6,-,N/A,,Partly Cloudy,330,2012-11-22 23:50:00
6:00 AM,64.4,57.2,77,30.18,6.2,NW,4.6,-,N/A,,Partly Cloudy,320,2012-11-23 05:00:00
6:07 AM,62.6,57.2,82,30.21,6.2,NW,4.6,-,N/A,,Partly Cloudy,320,2012-11-23 05:07:00
6:50 AM,62.6,57.2,82,30.21,6.2,NNW,4.6,-,N/A,,Scattered Clouds,330,2012-11-23 05:50:00
7:50 AM,64.4,57.2,77,30.21,6.2,North,4.6,-,N/A,,Scattered Clouds,360,2012-11-23 06:50:00
8:50 AM,66.2,59.0,78,30.24,6.2,North,4.6,-,N/A,,Partly Cloudy,350,2012-11-23 07:50:00
9:50 AM,66.2,59.0,78,30.24,6.2,North,6.9,-,N/A,,Scattered Clouds,350,2012-11-23 08:50:00
10:50 AM,66.2,59.0,78,30.24,6.2,NNW,5.8,-,N/A,,Scattered Clouds,330,2012-11-23 09:50:00
11:50 AM,68.0,57.2,68,30.24,6.2,North,5.8,-,N/A,,Partly Cloudy,360,2012-11-23 10:50:00
12:50 PM,68.0,57.2,68,30.21,6.2,North,5.8,-,N/A,,Partly Cloudy,10,2012-11-23 11:50:00
1:50 PM,68.0,57.2,68,30.21,6.2,North,6.9,-,N/A,,Scattered Clouds,360,2012-11-23 12:50:00
2:50 PM,68.0,57.2,68,30.21,6.2,North,6.9,-,N/A,,Scattered Clouds,350,2012-11-23 13:50:00
3:50 PM,68.0,55.4,64,30.21,6.2,North,5.8,-,N/A,,Partly Cloudy,360,2012-11-23 14:50:00
5:50 PM,66.2,55.4,68,30.21,6.2,NNE,5.8,-,N/A,,Partly Cloudy,20,2012-11-23 16:50:00
6:50 PM,64.4,57.2,77,30.21,6.2,North,5.8,-,N/A,,Scattered Clouds,10,2012-11-23 17:50:00
7:50 PM,64.4,57.2,77,30.24,6.2,North,6.9,-,N/A,,Partly Cloudy,10,2012-11-23 18:50:00
8:50 PM,64.4,57.2,77,30.24,6.2,NNE,6.9,-,N/A,,Partly Cloudy,20,2012-11-23 19:50:00
9:50 PM,64.4,55.4,73,30.24,6.2,NNE,6.9,-,N/A,,Partly Cloudy,20,2012-11-23 20:50:00
10:50 PM,64.4,55.4,73,30.24,6.2,NNE,6.9,-,N/A,,Partly Cloudy,30,2012-11-23 21:50:00
11:50 PM,64.4,57.2,77,30.24,6.2,NE,6.9,-,N/A,,Partly Cloudy,40,2012-11-23 22:50:00